OK1VCF-8 Weather Reports


time (UTC)temp
F
wind
direction
speed
knots
gust
knots
rain 1hr
in
rain 24hr
in
rain mn
in
humidity
%
barometer
mb
20260902100956 76 0 0.0 0.0 0.00 0.00 0.00 49 1022.6
20260902100231 74 0 0.0 0.0 0.00 0.00 0.00 52 1022.8
20260902095505 75 0 0.0 0.0 0.00 0.00 0.00 54 1022.8
20260902093035 74 0 0.0 0.0 0.00 0.00 0.00 53 1023.0
20260902092314 74 0 0.0 0.0 0.00 0.00 0.00 54 1023.0
20260902091555 73 0 0.0 0.0 0.00 0.00 0.00 54 1023.0
20260902090838 72 0 0.0 0.0 0.00 0.00 0.00 56 1022.9
20260902090120 72 0 0.0 0.0 0.00 0.00 0.00 58 1023.0
20260902085359 71 0 0.0 0.0 0.00 0.00 0.00 59 1023.0
20260902084641 70 0 0.0 0.0 0.00 0.00 0.00 62 1022.9
20260902083923 69 0 0.0 0.0 0.00 0.00 0.00 63 1023.0
20260902083205 68 0 0.0 0.0 0.00 0.00 0.00 64 1023.0
20260902082448 68 0 0.0 0.0 0.00 0.00 0.00 64 1022.9
20260902081731 68 0 0.0 0.0 0.00 0.00 0.00 64 1023.0
20260902081012 67 0 0.0 0.0 0.00 0.00 0.00 66 1023.1
20260902080253 66 0 0.0 0.0 0.00 0.00 0.00 66 1023.0
20260902075249 66 0 0.0 0.0 0.00 0.00 0.00 67 1023.0
20260902074532 66 0 0.0 0.0 0.00 0.00 0.00 67 1023.0
20260902073814 66 0 0.0 0.0 0.00 0.00 0.00 68 1023.0
20260902073054 64 0 0.0 0.0 0.00 0.00 0.00 68 1023.1
20260902072335 64 0 0.0 0.0 0.00 0.00 0.00 70 1023.1
20260902071615 64 0 0.0 0.0 0.00 0.00 0.00 70 1023.1
20260902070852 63 0 0.0 0.0 0.00 0.00 0.00 72 1023.2
20260902070129 62 0 0.0 0.0 0.00 0.00 0.00 72 1023.2
20260902065402 62 0 0.0 0.0 0.00 0.00 0.00 73 1023.2
20260902064637 61 0 0.0 0.0 0.00 0.00 0.00 74 1023.1
20260902063912 60 0 0.0 0.0 0.00 0.00 0.00 75 1023.2
20260902063145 60 0 0.0 0.0 0.00 0.00 0.00 76 1023.0
20260902062418 60 0 0.0 0.0 0.00 0.00 0.00 77 1023.2
20260902061653 59 0 0.0 0.0 0.00 0.00 0.00 78 1023.0
20260902060925 58 0 0.0 0.0 0.00 0.00 0.00 80 1022.9
20260902055915 59 0 0.0 0.0 0.00 0.00 0.00 78 1023.0
20260902055154 60 0 0.0 0.0 0.00 0.00 0.00 78 1023.0
20260902054435 60 0 0.0 0.0 0.00 0.00 0.00 78 1023.0
20260902053717 58 0 0.0 0.0 0.00 0.00 0.00 80 1023.1
20260902052957 57 0 0.0 0.0 0.00 0.00 0.00 82 1022.9
20260902052240 56 0 0.0 0.0 0.00 0.00 0.00 82 1022.8
20260902051520 56 0 0.0 0.0 0.00 0.00 0.00 84 1022.8
20260902050804 55 0 0.0 0.0 0.00 0.00 0.00 85 1022.8
20260902050045 56 0 0.0 0.0 0.00 0.00 0.00 85 1022.7
20260902045325 55 0 0.0 0.0 0.00 0.00 0.00 85 1022.5
20260902044608 54 0 0.0 0.0 0.00 0.00 0.00 86 1022.5
20260902043852 54 0 0.0 0.0 0.00 0.00 0.00 86 1022.3
20260902043132 54 0 0.0 0.0 0.00 0.00 0.00 87 1022.3
20260902042412 54 0 0.0 0.0 0.00 0.00 0.00 86 1022.2
20260902041653 54 0 0.0 0.0 0.00 0.00 0.00 88 1022.2
20260902040651 53 0 0.0 0.0 0.00 0.00 0.00 88 1022.2
20260902035933 53 0 0.0 0.0 0.00 0.00 0.00 88 1022.1
20260902035215 53 0 0.0 0.0 0.00 0.00 0.00 88 1022.2
20260902034458 53 0 0.0 0.0 0.00 0.00 0.00 88 1022.2
20260902033741 54 0 0.0 0.0 0.00 0.00 0.00 86 1022.2
20260902033022 54 0 0.0 0.0 0.00 0.00 0.00 86 1022.2
20260902032306 54 0 0.0 0.0 0.00 0.00 0.00 88 1022.4
20260902031549 53 0 0.0 0.0 0.00 0.00 0.00 88 1022.4
20260902030831 53 0 0.0 0.0 0.00 0.00 0.00 88 1022.6
20260902030113 54 0 0.0 0.0 0.00 0.00 0.00 87 1022.4
20260902025354 54 0 0.0 0.0 0.00 0.00 0.00 86 1022.5
20260902024638 54 0 0.0 0.0 0.00 0.00 0.00 86 1022.5
20260902023921 54 0 0.0 0.0 0.00 0.00 0.00 86 1022.5
20260902023203 54 0 0.0 0.0 0.00 0.00 0.00 84 1022.4
20260902022446 56 0 0.0 0.0 0.00 0.00 0.00 84 1022.4
20260902021446 55 0 0.0 0.0 0.00 0.00 0.00 84 1022.6
20260902020727 56 0 0.0 0.0 0.00 0.00 0.00 84 1022.5
20260902020010 56 0 0.0 0.0 0.00 0.00 0.00 82 1022.4
20260902015251 56 0 0.0 0.0 0.00 0.00 0.00 84 1022.4
20260902013110 56 0 0.0 0.0 0.00 0.00 0.00 84 1022.4
20260902012351 55 0 0.0 0.0 0.00 0.00 0.00 85 1022.2
20260902011633 55 0 0.0 0.0 0.00 0.00 0.00 85 1022.2
20260902010914 55 0 0.0 0.0 0.00 0.00 0.00 84 1022.0
20260902010150 55 0 0.0 0.0 0.00 0.00 0.00 84 1022.0
20260902005422 55 0 0.0 0.0 0.00 0.00 0.00 84 1022.2
20260902004653 56 0 0.0 0.0 0.00 0.00 0.00 82 1022.2
20260902003928 57 0 0.0 0.0 0.00 0.00 0.00 81 1022.2
20260902003204 57 0 0.0 0.0 0.00 0.00 0.00 80 1022.2
20260902002149 57 0 0.0 0.0 0.00 0.00 0.00 80 1022.2
20260902001420 57 0 0.0 0.0 0.00 0.00 0.00 80 1022.1
20260902000651 58 0 0.0 0.0 0.00 0.00 0.00 80 1022.3
20260901235921 57 0 0.0 0.0 0.00 0.00 0.00 80 1022.2
20260901235139 57 0 0.0 0.0 0.00 0.00 0.00 80 1022.4
20260901234402 57 0 0.0 0.0 0.00 0.00 0.00 80 1022.2
20260901233626 57 0 0.0 0.0 0.00 0.00 0.00 80 1022.3
20260901232855 58 0 0.0 0.0 0.00 0.00 0.00 79 1022.2
20260901232134 58 0 0.0 0.0 0.00 0.00 0.00 78 1022.2
20260901231417 58 0 0.0 0.0 0.00 0.00 0.00 78 1022.2
20260901230702 58 0 0.0 0.0 0.00 0.00 0.00 78 1022.2
20260901225945 58 0 0.0 0.0 0.00 0.00 0.00 77 1022.2
20260901225229 59 0 0.0 0.0 0.00 0.00 0.00 76 1022.3
20260901224511 59 0 0.0 0.0 0.00 0.00 0.00 76 1022.2
20260901223754 59 0 0.0 0.0 0.00 0.00 0.00 76 1022.2
20260901222754 60 0 0.0 0.0 0.00 0.00 0.00 76 1022.4
20260901222035 60 0 0.0 0.0 0.00 0.00 0.00 74 1022.2
20260901221318 60 0 0.0 0.0 0.00 0.00 0.00 75 1022.4
20260901220601 60 0 0.0 0.0 0.00 0.00 0.00 76 1022.4
20260901215843 60 0 0.0 0.0 0.00 0.00 0.00 75 1022.3
20260901215126 60 0 0.0 0.0 0.00 0.00 0.00 74 1022.3
20260901214409 60 0 0.0 0.0 0.00 0.00 0.00 74 1022.3
20260901213653 60 0 0.0 0.0 0.00 0.00 0.00 74 1022.2
20260901212935 60 0 0.0 0.0 0.00 0.00 0.00 74 1022.2
20260901212218 60 0 0.0 0.0 0.00 0.00 0.00 74 1022.1
20260901211500 60 0 0.0 0.0 0.00 0.00 0.00 74 1022.0
20260901210745 60 0 0.0 0.0 0.00 0.00 0.00 74 1022.0
20260901210027 60 0 0.0 0.0 0.00 0.00 0.00 74 1022.0
20260901205310 60 0 0.0 0.0 0.00 0.00 0.00 74 1022.0
20260901204553 60 0 0.0 0.0 0.00 0.00 0.00 73 1022.0
20260901203553 62 0 0.0 0.0 0.00 0.00 0.00 72 1022.0
20260901202836 62 0 0.0 0.0 0.00 0.00 0.00 72 1022.0
20260901202118 62 0 0.0 0.0 0.00 0.00 0.00 72 1022.1
20260901201401 62 0 0.0 0.0 0.00 0.00 0.00 71 1022.0
20260901200645 62 0 0.0 0.0 0.00 0.00 0.00 70 1022.0
20260901195927 62 0 0.0 0.0 0.00 0.00 0.00 70 1022.0
20260901193747 64 0 0.0 0.0 0.00 0.00 0.00 65 1022.0
20260901193028 64 0 0.0 0.0 0.00 0.00 0.00 66 1021.8
20260901192311 64 0 0.0 0.0 0.00 0.00 0.00 65 1021.8
20260901191554 64 0 0.0 0.0 0.00 0.00 0.00 64 1021.8
20260901190838 64 0 0.0 0.0 0.00 0.00 0.00 64 1021.6
20260901190120 64 0 0.0 0.0 0.00 0.00 0.00 62 1021.6
20260901185402 64 0 0.0 0.0 0.00 0.00 0.00 63 1021.6
20260901184400 65 0 0.0 0.0 0.00 0.00 0.00 62 1021.5
20260901183642 65 0 0.0 0.0 0.00 0.00 0.00 62 1021.4
20260901182924 66 0 0.0 0.0 0.00 0.00 0.00 62 1021.4
20260901182206 66 0 0.0 0.0 0.00 0.00 0.00 60 1021.2
20260901181447 68 0 0.0 0.0 0.00 0.00 0.00 58 1021.2
20260901180730 68 0 0.0 0.0 0.00 0.00 0.00 56 1021.2
20260901180010 68 0 0.0 0.0 0.00 0.00 0.00 56 1021.0
20260901175252 68 0 0.0 0.0 0.00 0.00 0.00 56 1020.9
20260901174535 68 0 0.0 0.0 0.00 0.00 0.00 56 1021.0
20260901173818 68 0 0.0 0.0 0.00 0.00 0.00 56 1020.9
20260901173058 68 0 0.0 0.0 0.00 0.00 0.00 55 1020.9
20260901172340 69 0 0.0 0.0 0.00 0.00 0.00 54 1020.8
20260901171621 70 0 0.0 0.0 0.00 0.00 0.00 52 1021.0
20260901170904 71 0 0.0 0.0 0.00 0.00 0.00 50 1020.9
20260901170147 72 0 0.0 0.0 0.00 0.00 0.00 50 1020.9
20260901165144 73 0 0.0 0.0 0.00 0.00 0.00 48 1021.0
20260901164428 75 0 0.0 0.0 0.00 0.00 0.00 44 1021.0
20260901163710 82 0 0.0 0.0 0.00 0.00 0.00 36 1021.0
20260901162952 83 0 0.0 0.0 0.00 0.00 0.00 36 1020.9
20260901162235 86 0 0.0 0.0 0.00 0.00 0.00 33 1020.8
20260901161516 86 0 0.0 0.0 0.00 0.00 0.00 34 1020.8
20260901160758 86 0 0.0 0.0 0.00 0.00 0.00 34 1020.8
20260901160040 86 0 0.0 0.0 0.00 0.00 0.00 33 1020.8
20260901155320 86 0 0.0 0.0 0.00 0.00 0.00 33 1020.8
20260901154605 84 0 0.0 0.0 0.00 0.00 0.00 34 1021.0
20260901153849 86 0 0.0 0.0 0.00 0.00 0.00 32 1020.9
20260901153130 86 0 0.0 0.0 0.00 0.00 0.00 33 1021.0
20260901152409 84 0 0.0 0.0 0.00 0.00 0.00 34 1021.0
20260901151651 83 0 0.0 0.0 0.00 0.00 0.00 35 1021.0
20260901150932 77 0 0.0 0.0 0.00 0.00 0.00 43 1021.1
20260901145929 76 0 0.0 0.0 0.00 0.00 0.00 43 1021.2
20260901145213 75 0 0.0 0.0 0.00 0.00 0.00 44 1021.2
20260901144455 76 0 0.0 0.0 0.00 0.00 0.00 42 1021.3
20260901143735 77 0 0.0 0.0 0.00 0.00 0.00 42 1021.4
20260901143017 76 0 0.0 0.0 0.00 0.00 0.00 42 1021.2
20260901142258 77 0 0.0 0.0 0.00 0.00 0.00 42 1021.4
20260901141539 76 0 0.0 0.0 0.00 0.00 0.00 44 1021.4
20260901140821 76 0 0.0 0.0 0.00 0.00 0.00 44 1021.3
20260901140104 76 0 0.0 0.0 0.00 0.00 0.00 46 1021.4
20260901135344 76 0 0.0 0.0 0.00 0.00 0.00 46 1021.6
20260901134626 74 0 0.0 0.0 0.00 0.00 0.00 48 1021.6
20260901133909 74 0 0.0 0.0 0.00 0.00 0.00 47 1021.6
20260901133150 72 0 0.0 0.0 0.00 0.00 0.00 48 1021.7
20260901132432 74 0 0.0 0.0 0.00 0.00 0.00 48 1021.7
20260901131714 74 0 0.0 0.0 0.00 0.00 0.00 48 1021.8
20260901130707 74 0 0.0 0.0 0.00 0.00 0.00 48 1021.9
20260901125938 72 0 0.0 0.0 0.00 0.00 0.00 49 1021.8
20260901125208 72 0 0.0 0.0 0.00 0.00 0.00 48 1021.8
20260901124439 74 0 0.0 0.0 0.00 0.00 0.00 46 1021.9
20260901123712 76 0 0.0 0.0 0.00 0.00 0.00 44 1021.8
20260901122941 76 0 0.0 0.0 0.00 0.00 0.00 44 1022.0
20260901122212 75 0 0.0 0.0 0.00 0.00 0.00 44 1022.0
20260901121434 76 0 0.0 0.0 0.00 0.00 0.00 46 1022.0
20260901120706 76 0 0.0 0.0 0.00 0.00 0.00 45 1022.0
20260901115931 76 0 0.0 0.0 0.00 0.00 0.00 46 1022.1
20260901115155 77 0 0.0 0.0 0.00 0.00 0.00 44 1022.1
20260901114417 78 0 0.0 0.0 0.00 0.00 0.00 44 1022.0
20260901113642 76 0 0.0 0.0 0.00 0.00 0.00 46 1022.2
20260901112913 75 0 0.0 0.0 0.00 0.00 0.00 46 1022.0
20260901112146 76 0 0.0 0.0 0.00 0.00 0.00 48 1022.2
20260901111143 75 0 0.0 0.0 0.00 0.00 0.00 47 1022.2
20260901110426 74 0 0.0 0.0 0.00 0.00 0.00 50 1022.2
20260901105707 74 0 0.0 0.0 0.00 0.00 0.00 50 1022.1
20260901104950 74 0 0.0 0.0 0.00 0.00 0.00 49 1022.0
20260901104232 74 0 0.0 0.0 0.00 0.00 0.00 50 1022.2
20260901103514 73 0 0.0 0.0 0.00 0.00 0.00 51 1022.2
20260901102756 75 0 0.0 0.0 0.00 0.00 0.00 50 1022.2
20260901102037 73 0 0.0 0.0 0.00 0.00 0.00 52 1022.1
20260901101318 73 0 0.0 0.0 0.00 0.00 0.00 50 1022.2